Weather History for Ocala, FL

Change the Weather History Date:

Sunday, April 28, 2013

  Actual Average Record
Temperature  
Mean Temperature 72 °F -  
Max Temperature 84 °F 81 °F 91 °F (1999)
Min Temperature 59 °F 57 °F 46 °F (2004)
Cooling Degree Days 6    
Growing Degree Days 22 (Base 50)    
Moisture  
Dew Point 59 °F    
Average Humidity 70    
Maximum Humidity 88    
Minimum Humidity 45    
Precipitation  
Precipitation 0.00 in - - ()
Sea Level Pressure  
Sea Level Pressure 30.08 in    
Wind  
Wind Speed 3 mph (East)    
Max Wind Speed 9 mph    
Max Gust Speed -    
Visibility 10 miles    
Events      
Averages and records for this station are not official NWS values.
T = Trace of Precipitation, MM = Missing Value Source: NWS Daily Summary

Daily Weather History Graph

Daily Weather History Graph

Search for Another Location

Airport:

Trip Planner

Search our weather history database for the weather conditions in past years. The results will help you decide how hot, cold, wet, or windy it might be!

Date:

Astronomy

Apr. 28, 2013 Rise Set
Actual Time 6:49 AM EDT 8:03 PM EDT
Civil Twilight 6:24 AM EDT 8:28 PM EDT
Nautical Twilight 5:55 AM EDT 8:58 PM EDT
Astronomical Twilight 5:24 AM EDT 9:28 PM EDT
Moon 11:24 PM EDT (4/28) 9:13 AM EDT (4/28)
Length of Visible Light 14h 03m
Length of Day
13h 13m
Waning Gibbous, 89% of the Moon is Illuminated
Apr 28
Waning Gibbous
May 2
Last Quarter
May 9
New
May 18
First Quarter
May 25
Full

Hourly Weather History & Observations

Time (EDT) Temp. Heat Index Dew Point Humidity Pressure Visibility Wind Dir Wind Speed Gust Speed Precip Events Conditions
12:15 AM 69.8 °F - 59.0 °F 68% 30.17 in 10.0 mi ENE 3.5 mph - N/A   Clear
12:35 AM 68.0 °F - 59.0 °F 73% 30.17 in 10.0 mi NE 3.5 mph - N/A   Clear
12:55 AM 66.2 °F - 57.2 °F 73% 30.16 in 10.0 mi NE 3.5 mph - N/A   Clear
1:15 AM 66.2 °F - 57.2 °F 73% 30.16 in 10.0 mi NE 3.5 mph - N/A   Clear
1:35 AM 64.4 °F - 57.2 °F 77% 30.15 in 10.0 mi NNE 3.5 mph - N/A   Clear
1:55 AM 64.4 °F - 57.2 °F 77% 30.15 in 10.0 mi Calm Calm - N/A   Clear
2:15 AM 64.4 °F - 57.2 °F 77% 30.15 in 10.0 mi NNE 3.5 mph - N/A   Clear
2:35 AM 64.4 °F - 57.2 °F 77% 30.14 in 10.0 mi NE 3.5 mph - N/A   Clear
2:55 AM 62.6 °F - 57.2 °F 82% 30.13 in 10.0 mi Calm Calm - N/A   Clear
3:15 AM 62.6 °F - 57.2 °F 82% 30.12 in 10.0 mi Calm Calm - N/A   Clear
3:35 AM 62.6 °F - 57.2 °F 82% 30.11 in 10.0 mi Calm Calm - N/A   Clear
3:55 AM 60.8 °F - 55.4 °F 82% 30.11 in 10.0 mi Calm Calm - N/A   Clear
4:15 AM 60.8 °F - 55.4 °F 82% 30.10 in 10.0 mi Calm Calm - N/A   Clear
4:35 AM 60.8 °F - 55.4 °F 82% 30.10 in 10.0 mi Calm Calm - N/A   Clear
4:55 AM 60.8 °F - 55.4 °F 82% 30.11 in 10.0 mi NNE 3.5 mph - N/A   Clear
5:15 AM 60.8 °F - 57.2 °F 88% 30.10 in 10.0 mi Calm Calm - N/A   Clear
5:35 AM 60.8 °F - 55.4 °F 82% 30.10 in 10.0 mi North 3.5 mph - N/A   Clear
5:55 AM 59.0 °F - 55.4 °F 88% 30.10 in 10.0 mi Calm Calm - N/A   Clear
6:15 AM 59.0 °F - 55.4 °F 88% 30.09 in 10.0 mi Calm Calm - N/A   Clear
6:35 AM 59.0 °F - 55.4 °F 88% 30.10 in 10.0 mi NNE 3.5 mph - N/A   Clear
6:50 AM 59.0 °F - 53.6 °F 82% 30.10 in 10.0 mi North 4.6 mph - N/A   Clear
7:50 AM 62.6 °F - 59.0 °F 88% 30.12 in 10.0 mi Calm Calm - N/A   Clear
9:50 AM 75.2 °F - 64.4 °F 69% 30.15 in 10.0 mi SSE 5.8 mph - N/A   Scattered Clouds
10:50 AM 75.2 °F - 62.6 °F 65% 30.15 in 10.0 mi South 3.5 mph - N/A   Mostly Cloudy
11:50 AM 78.8 °F - 62.6 °F 57% 30.13 in 10.0 mi South 9.2 mph - N/A   Mostly Cloudy
12:50 PM 80.6 °F 81.8 °F 62.6 °F 54% 30.10 in 10.0 mi SSE 9.2 mph - N/A   Scattered Clouds
1:50 PM 82.4 °F 82.9 °F 60.8 °F 48% 30.07 in 10.0 mi East 8.1 mph - N/A   Scattered Clouds
2:50 PM 84.2 °F 85.0 °F 62.6 °F 48% 30.06 in 10.0 mi SE 9.2 mph - N/A   Mostly Cloudy
3:50 PM 82.4 °F 82.9 °F 60.8 °F 48% 30.02 in 10.0 mi ESE 6.9 mph - N/A   Scattered Clouds
4:50 PM 84.2 °F 84.4 °F 60.8 °F 45% 30.01 in 10.0 mi ESE 6.9 mph - N/A   Scattered Clouds
5:50 PM 82.4 °F 82.9 °F 60.8 °F 48% 30.00 in 10.0 mi SE 6.9 mph - N/A   Scattered Clouds
6:50 PM 80.6 °F 81.5 °F 60.8 °F 51% 29.99 in 10.0 mi SE 5.8 mph - N/A   Partly Cloudy
7:55 PM 78.8 °F - 60.8 °F 54% 29.99 in 10.0 mi SE 6.9 mph - N/A   Clear
8:15 PM 77.0 °F - 60.8 °F 57% 30.00 in 10.0 mi SE 4.6 mph - N/A   Clear
8:35 PM 75.2 °F - 60.8 °F 61% 30.01 in 10.0 mi ESE 4.6 mph - N/A   Partly Cloudy
8:55 PM 75.2 °F - 60.8 °F 61% 30.01 in 10.0 mi ESE 4.6 mph - N/A   Mostly Cloudy
9:15 PM 75.2 °F - 60.8 °F 61% 30.01 in 10.0 mi SE 6.9 mph - N/A   Mostly Cloudy
9:35 PM 73.4 °F - 60.8 °F 65% 30.02 in 10.0 mi SE 4.6 mph - N/A   Partly Cloudy
9:55 PM 73.4 °F - 60.8 °F 65% 30.03 in 10.0 mi Calm Calm - N/A   Clear
10:15 PM 71.6 °F - 60.8 °F 69% 30.04 in 10.0 mi Calm Calm - N/A   Clear
10:35 PM 71.6 °F - 60.8 °F 69% 30.04 in 10.0 mi Calm Calm - N/A   Clear
10:55 PM 71.6 °F - 60.8 °F 69% 30.04 in 10.0 mi Calm Calm - N/A   Clear
11:15 PM 69.8 °F - 60.8 °F 73% 30.04 in 10.0 mi Calm Calm - N/A   Clear
11:35 PM 69.8 °F - 60.8 °F 73% 30.04 in 10.0 mi Calm Calm - N/A   Clear
11:55 PM 69.8 °F - 60.8 °F 73% 30.04 in 10.0 mi Calm Calm - N/A   Clear